Tracking 35331 objects as of 14-Sep-2026
HD Live streaming from Space Station
objects crossing your sky now

DELTA 2 R/B(2)

Track DELTA 2 R/B(2) now!


NORAD ID: 26115
Int'l Code: 2000-017C
Launch date: March 25, 2000
Source: United States (US)
Launch site: AIR FORCE WESTERN TEST RANGE (AFWTR)

Note: This is a ROCKET BODY
Your satellite tracking list
Your tracking list is empty




NASA's NSSDC Master Catalog

Two Line Element Set (TLE):
1 26115U 00017C   26257.04589498  .00000109  00000-0  16582-1 0  9995
2 26115  94.2651 316.6581 7394625 280.6665  11.0868  1.68225559162593
Source of the keplerian elements: AFSPC